Weather History for Joplin, MO

Change the Weather History Date:

Thursday, February 28, 2013

  Actual Average Record
Temperature  
Mean Temperature 32 °F 44 °F  
Max Temperature 34 °F 55 °F 78 °F (1972)
Min Temperature 30 °F 33 °F 2 °F (1962)
Degree Days  
Heating Degree Days 33 21  
Month to date heating degree days 763 704  
Since 1 July heating degree days 3116 3254  
Cooling Degree Days 0 0  
Month to date cooling degree days 0 1  
Year to date cooling degree days 1 1  
Moisture  
Dew Point 26 °F    
Average Humidity 77    
Maximum Humidity 85    
Minimum Humidity 69    
Precipitation  
Precipitation 0.00 in 0.10 in 1.52 in (1987)
Month to date precipitation 2.70 2.32  
Year to date precipitation 5.15 4.35  
Sea Level Pressure  
Sea Level Pressure 30.17 in    
Wind  
Wind Speed 10 mph (NW)    
Max Wind Speed 13 mph    
Max Gust Speed -    
Visibility 9 miles    
Events      
T = Trace of Precipitation, MM = Missing Value Source: NWS Daily Summary

Daily Weather History Graph

Daily Weather History Graph

Search for Another Location

Airport:

Trip Planner

Search our weather history database for the weather conditions in past years. The results will help you decide how hot, cold, wet, or windy it might be!

Date:

Astronomy

Feb. 28, 2013 Rise Set
Actual Time 6:50 AM CST 6:11 PM CST
Civil Twilight 6:23 AM CST 6:37 PM CST
Nautical Twilight 5:53 AM CST 7:07 PM CST
Astronomical Twilight 5:23 AM CST 7:37 PM CST
Moon 9:33 PM CST (2/28) 8:05 AM CST (2/28)
Length of Visible Light 12h 13m
Length of Day
11h 21m
Waning Gibbous, 90% of the Moon is Illuminated
Feb 28
Waning Gibbous
Mar 4
Last Quarter
Mar 11
New
Mar 19
First Quarter
Mar 27
Full

Hourly Weather History & Observations

Time (CST) Temp. Windchill Dew Point Humidity Pressure Visibility Wind Dir Wind Speed Gust Speed Precip Events Conditions
12:53 AM 30.2 °F 20.8 °F 26.6 °F 86% 30.07 in 10.0 mi WNW 11.5 mph - N/A   Clear
1:53 AM 30.9 °F 22.2 °F 26.1 °F 82% 30.10 in 10.0 mi WNW 10.4 mph - N/A   Clear
2:53 AM 30.0 °F 21.1 °F 26.1 °F 85% 30.11 in 9.0 mi WNW 10.4 mph - N/A   Clear
3:53 AM 30.0 °F 21.1 °F 26.1 °F 85% 30.12 in 9.0 mi WNW 10.4 mph - N/A   Clear
4:13 AM 30.2 °F 21.3 °F 26.6 °F 86% 30.10 in 9.0 mi NW 10.4 mph - N/A   Mostly Cloudy
4:53 AM 30.0 °F 21.1 °F 26.1 °F 85% 30.12 in 8.0 mi NW 10.4 mph - N/A   Overcast
5:43 AM 30.2 °F - 24.8 °F 80% 30.11 in 8.0 mi North - - N/A   Overcast
5:53 AM 30.2 °F 21.9 °F 24.8 °F 80% 30.12 in 8.0 mi NW 9.2 mph - N/A   Overcast
6:53 AM 30.9 °F 21.7 °F 25.0 °F 79% 30.15 in 8.0 mi NW 11.5 mph - N/A   Overcast
7:53 AM 30.2 °F 20.2 °F 26.6 °F 86% 30.14 in 7.0 mi NNW 12.7 mph - N/A   Overcast
8:53 AM 30.9 °F 23.5 °F 26.1 °F 82% 30.18 in 7.0 mi NNW 8.1 mph - N/A   Overcast
9:53 AM 32.0 °F 23.6 °F 26.1 °F 79% 30.19 in 8.0 mi NW 10.4 mph - N/A   Overcast
10:53 AM 33.1 °F 23.9 °F 26.1 °F 75% 30.20 in 8.0 mi NNW 12.7 mph - N/A   Overcast
11:53 AM 33.1 °F 23.9 °F 26.1 °F 75% 30.21 in 9.0 mi NNW 12.7 mph - N/A   Overcast
12:53 PM 33.1 °F 24.4 °F 26.1 °F 75% 30.20 in 10.0 mi NNW 11.5 mph - N/A   Overcast
1:53 PM 34.0 °F 26.6 °F 26.1 °F 73% 30.20 in 10.0 mi NW 9.2 mph - N/A   Overcast
2:53 PM 33.1 °F 24.9 °F 26.1 °F 75% 30.20 in 10.0 mi NW 10.4 mph - N/A   Overcast
3:53 PM 33.8 °F 26.4 °F 26.6 °F 75% 30.19 in 10.0 mi NW 9.2 mph - N/A   Overcast
4:53 PM 33.1 °F 26.1 °F 25.0 °F 72% 30.22 in 10.0 mi NW 8.1 mph - N/A   Overcast
5:53 PM 32.0 °F 23.6 °F 25.0 °F 75% 30.22 in 10.0 mi NNW 10.4 mph - N/A   Overcast
6:53 PM 30.9 °F 22.8 °F 25.0 °F 79% 30.22 in 10.0 mi NW 9.2 mph - N/A   Overcast
7:53 PM 30.9 °F 24.3 °F 25.0 °F 79% 30.23 in 10.0 mi NW 6.9 mph - N/A   Overcast
8:53 PM 30.9 °F 24.3 °F 25.0 °F 79% 30.22 in 10.0 mi NW 6.9 mph - N/A   Overcast
9:53 PM 30.9 °F 25.2 °F 26.1 °F 82% 30.24 in 10.0 mi NW 5.8 mph - N/A   Overcast
10:53 PM 30.9 °F 24.3 °F 25.0 °F 79% 30.23 in 10.0 mi WNW 6.9 mph - N/A   Overcast
11:04 PM 30.2 °F 24.3 °F 24.8 °F 80% 30.20 in 10.0 mi WNW 5.8 mph - N/A   Overcast
11:53 PM 30.9 °F 23.5 °F 25.0 °F 79% 30.21 in 10.0 mi NW 8.1 mph - N/A   Overcast